sat.trackr.live / text

‹ back to catalog

STARLINK-34531

NORAD 64750 · 2025-144AC

PAYLOAD ACTIVE UNKNOWN

§ Identity

Operator
Country
US
Launch date
2025-07-02
Launch site
AFETR
Launch vehicle
Mass (kg)
RCS (m²)

Purposes: comms

External: N2YO · Heavens-Above · Gunter

§ Orbital elements

Epoch: 2026-05-24T20:23:32.179200Z

Period
94.11 min
Inclination
53.1586°
Eccentricity
0.0001226
Mean motion
15.30200596 rev/d
Perigee alt
474.4 km
Apogee alt
476.1 km
Semi-major
6,853.4 km
B*
4.4927e-4
RAAN
187.1856°
Arg perigee
85.5935°
Mean anomaly
274.5206°
Rev number
5,137

§ Raw data

STARLINK-345311 64750U 25144AC  26144.84967800  .00012970  00000+0  44927-3 0  99942 64750  53.1586 187.1856 0001226  85.5935 274.5206 15.30200596 51377

JSON: /api/v1/satellites/64750 · /tle

For live sub-satellite position, see the globe view (requires WebGL).

§ Visibility from observer

Set your observer location to see the next 7 days of passes ≥ 10°. The values pass through the URL so the page stays shareable.

No JS? Fill the form by hand. The geolocation button needs JavaScript.